Regional Weather Roundup
Issued by NWS

Home | Current Version | Previous Version | Graphics & Text | Print | Product List | Glossary On
Versions: 1 2 3 4 5 6 7 8 9 10 11 12 13 14 15 16 17 18 19 20 21 22 23 24 25 26 27 28 29 30 31 32 33 34 35 36 37 38 39 40 41 42 43 44 45 46 47 48 49 50
655
ASUS44 KMEG 191300
RWRTN
TENNESSEE HOURLY STATE WEATHER ROUNDUP
NATIONAL WEATHER SERVICE MEMPHIS TN
700 AM CST SUN NOV 19 2017

TNZ002-004-019-021-049-052-054-088>092-191400-
WEST TENNESSEE

CITY           SKY/WX    TMP DP  RH WIND       PRES   REMARKS
MEMPHIS INTL   PTCLDY    39  32  76 NW7       30.20R WCI  34
NWS MEMPHIS      N/A     38 N/A N/A MISG        N/A
JACKSON        CLEAR     37  32  82 NW6       30.18R WCI  32
DYERSBURG      CLEAR     38  28  67 N9        30.19R WCI  31
$$

TNZ008-025-027-028-033-062-065-066-191400-
NORTH MIDDLE TENNESSEE

CITY           SKY/WX    TMP DP  RH WIND       PRES   REMARKS
NASHVILLE      MOCLDY    42  31  64 NW10      30.09R
CLARKSVILLE    MOCLDY    37  27  67 NW14      30.11R WCI  28
SMYRNA         CLOUDY    41  33  73 NW9       30.10R
CROSSVILLE     CLOUDY    36  28  73 NW9       30.01R WCI  29
$$

TNZ061-075-076-078-094-096-097-191400-
SOUTH MIDDLE TENNESSEE

CITY           SKY/WX    TMP DP  RH WIND       PRES   REMARKS
$$

TNZ017-018-042-046-047-191400-
NORTHEAST TENNESSEE

CITY           SKY/WX    TMP DP  RH WIND       PRES   REMARKS
TRI CITIES     MOCLDY    40  36  86 W9        29.94R WCI  34
$$

TNZ012-013-036-069-073-074-191400-
CENTRAL EAST TENNESSEE

CITY           SKY/WX    TMP DP  RH WIND       PRES   REMARKS
KNOXVILLE      CLOUDY    42  34  73 CALM      30.00R
OAK RIDGE      PTCLDY    42  32  67 CALM      30.02R
$$

TNZ083-085-099-191400-
SOUTHEAST TENNESSEE

CITY           SKY/WX    TMP DP  RH WIND       PRES   REMARKS
CHATTANOOGA    MOCLDY    42  30  62 NW8       30.05R
$$

SKY/WX REPORTED AS FAIR MEANS FEW OR NO CLOUDS BELOW
12 THOUSAND FEET.





USA.gov is the U.S. government's official web portal to all federal, state and local government web resources and services.